EZY23QM EGGP-GCTS

Flight info

Callsign EZY23QM
Flight time 4h 18m
Altitude 34000
Route WAL L10 PENIL M144 BAGSO DCT BUNED DCT WTD DCT TUVEN/M076F340 DCT LASNO T9 BEGAS/N0437F340 DCT RIPEL/N0441F350 DCT OBESA DCT PECKY DCT RAKUN DCT ORTIS
Aircraft A320/M-SDE2E3FGHIJ1RWXYZ/LB1

Departure

Time 2026-05-05 12:52
Airport Liverpool John Lennon Airport (EGGP)

Arrival

Time 2026-05-05 17:11
Airport Tenerife Sur Airport (GCTS)
Time Latitude Longitude Altitude Speed Heading
2026-05-05 12:24 53.33597 -2.84935 95 ft 0 kts 86°
2026-05-05 12:25 53.33597 -2.84934 95 ft 0 kts 86°
2026-05-05 12:25 53.33597 -2.84933 95 ft 0 kts 86°
2026-05-05 12:28 53.33597 -2.84932 96 ft 0 kts 86°
2026-05-05 12:28 53.33597 -2.84931 95 ft 0 kts 86°
2026-05-05 12:35 53.33597 -2.84930 94 ft 0 kts 86°
2026-05-05 12:45 53.33596 -2.84960 96 ft 4 kts 86°
2026-05-05 12:45 53.33594 -2.85004 94 ft 4 kts 93°
2026-05-05 12:46 53.33599 -2.85047 94 ft 4 kts 123°
2026-05-05 12:46 53.33617 -2.85071 94 ft 3 kts 174°
2026-05-05 12:46 53.33624 -2.85072 94 ft 0 kts 175°
2026-05-05 12:49 53.33616 -2.85071 94 ft 5 kts 175°
2026-05-05 12:49 53.33558 -2.85062 95 ft 8 kts 169°
2026-05-05 12:49 53.33530 -2.84969 96 ft 15 kts 88°
2026-05-05 12:49 53.33537 -2.84798 96 ft 15 kts 85°
2026-05-05 12:50 53.33545 -2.84626 94 ft 18 kts 86°
2026-05-05 12:50 53.33555 -2.84400 93 ft 20 kts 85°
2026-05-05 12:50 53.33566 -2.84172 94 ft 21 kts 85°
2026-05-05 12:50 53.33580 -2.83889 94 ft 25 kts 86°
2026-05-05 12:51 53.33593 -2.83600 94 ft 21 kts 85°
2026-05-05 12:51 53.33594 -2.83385 96 ft 15 kts 110°
2026-05-05 12:51 53.33507 -2.83299 94 ft 18 kts 174°
2026-05-05 12:51 53.33437 -2.83351 96 ft 11 kts 256°
2026-05-05 12:52 53.33427 -2.83575 94 ft 41 kts 265°
2026-05-05 12:52 53.33386 -2.84458 96 ft 108 kts 265°
2026-05-05 12:52 53.33316 -2.86008 122 ft 155 kts 265°
2026-05-05 12:52 53.33239 -2.87828 720 ft 158 kts 269°
2026-05-05 12:53 53.33181 -2.89689 1335 ft 164 kts 272°
2026-05-05 12:53 53.33420 -2.91518 1847 ft 163 kts 293°
2026-05-05 12:53 53.33868 -2.93309 2262 ft 170 kts 293°
2026-05-05 12:53 53.34303 -2.95169 2731 ft 174 kts 294°
2026-05-05 12:54 53.35301 -2.99305 3162 ft 213 kts 295°
2026-05-05 12:54 53.35920 -3.01711 3379 ft 237 kts 295°
2026-05-05 12:54 53.36623 -3.04333 3742 ft 255 kts 296°
2026-05-05 12:55 53.37377 -3.07063 4437 ft 260 kts 296°
2026-05-05 12:55 53.38155 -3.09817 5169 ft 263 kts 297°
2026-05-05 12:55 53.38956 -3.12595 5899 ft 266 kts 298°
2026-05-05 12:55 53.39941 -3.15234 6609 ft 268 kts 306°
2026-05-05 12:56 53.41030 -3.17796 7319 ft 271 kts 307°
2026-05-05 12:56 53.42141 -3.20375 8022 ft 274 kts 307°
2026-05-05 12:56 53.43249 -3.22950 8693 ft 278 kts 307°
2026-05-05 12:56 53.44384 -3.25597 9351 ft 281 kts 306°
2026-05-05 12:57 53.45528 -3.28277 10022 ft 284 kts 306°
2026-05-05 12:57 53.46703 -3.31032 10359 ft 300 kts 306°
2026-05-05 12:57 53.47962 -3.33992 10492 ft 322 kts 306°
2026-05-05 12:57 53.49287 -3.37116 10881 ft 333 kts 306°
2026-05-05 12:58 53.50637 -3.40305 11489 ft 337 kts 306°
2026-05-05 12:58 53.51999 -3.43526 12091 ft 340 kts 305°
2026-05-05 12:58 53.53370 -3.46780 12700 ft 342 kts 305°
2026-05-05 12:58 53.54750 -3.50052 13271 ft 345 kts 305°
2026-05-05 12:59 53.56144 -3.53359 13815 ft 348 kts 305°
2026-05-05 12:59 53.57546 -3.56695 14388 ft 350 kts 304°
2026-05-05 12:59 53.58957 -3.60056 14938 ft 353 kts 304°
2026-05-05 13:00 53.61312 -3.67319 15986 ft 357 kts 287°
2026-05-05 13:00 53.61815 -3.71418 16497 ft 359 kts 275°
2026-05-05 13:01 53.62330 -3.84107 17976 ft 365 kts 274°
2026-05-05 13:01 53.62508 -3.88384 18446 ft 367 kts 273°
2026-05-05 13:01 53.62687 -3.92696 18899 ft 370 kts 273°
2026-05-05 13:01 53.62864 -3.97029 19368 ft 371 kts 273°
2026-05-05 13:02 53.63038 -4.01379 19808 ft 374 kts 273°
2026-05-05 13:02 53.63211 -4.05757 20225 ft 376 kts 273°
2026-05-05 13:02 53.63382 -4.10161 20645 ft 378 kts 273°
2026-05-05 13:02 53.63554 -4.14599 21040 ft 381 kts 273°
2026-05-05 13:03 53.63729 -4.19052 21430 ft 382 kts 272°
2026-05-05 13:03 53.63901 -4.23542 21810 ft 385 kts 272°
2026-05-05 13:03 53.64069 -4.28050 22192 ft 387 kts 272°
2026-05-05 13:03 53.64230 -4.32526 22553 ft 389 kts 272°
2026-05-05 13:04 53.64392 -4.37083 22900 ft 391 kts 272°
2026-05-05 13:04 53.64556 -4.41663 23258 ft 393 kts 272°
2026-05-05 13:04 53.64725 -4.46261 23598 ft 395 kts 272°
2026-05-05 13:04 53.64893 -4.50887 23937 ft 397 kts 272°
2026-05-05 13:05 53.65058 -4.55546 24260 ft 399 kts 272°
2026-05-05 13:05 53.65224 -4.60219 24576 ft 401 kts 272°
2026-05-05 13:05 53.65388 -4.64920 24885 ft 402 kts 272°
2026-05-05 13:05 53.65549 -4.69642 25189 ft 404 kts 272°
2026-05-05 13:06 53.65705 -4.74384 25493 ft 406 kts 272°
2026-05-05 13:06 53.65808 -4.77597 25691 ft 407 kts 272°
2026-05-05 13:06 53.65962 -4.82377 25974 ft 409 kts 272°
2026-05-05 13:06 53.66119 -4.87172 26257 ft 411 kts 272°
2026-05-05 13:07 53.66282 -4.91997 26540 ft 413 kts 272°
2026-05-05 13:07 53.66444 -4.96770 26825 ft 414 kts 272°
2026-05-05 13:07 53.66604 -5.01620 27100 ft 415 kts 272°
2026-05-05 13:07 53.66754 -5.06493 27369 ft 417 kts 271°
2026-05-05 13:08 53.66898 -5.11387 27622 ft 419 kts 271°
2026-05-05 13:08 53.67045 -5.16300 27883 ft 420 kts 271°
2026-05-05 13:08 53.67192 -5.21219 28039 ft 421 kts 271°
2026-05-05 13:08 53.67338 -5.26142 28074 ft 420 kts 271°
2026-05-05 13:09 53.67616 -5.35972 28073 ft 419 kts 271°
2026-05-05 13:09 53.67486 -5.40864 28073 ft 417 kts 260°
2026-05-05 13:09 53.66772 -5.45587 28073 ft 416 kts 249°
2026-05-05 13:10 53.65505 -5.49966 28073 ft 416 kts 238°
2026-05-05 13:10 53.63744 -5.53836 28074 ft 417 kts 227°
2026-05-05 13:10 53.61564 -5.57053 28082 ft 418 kts 216°
2026-05-05 13:10 53.59137 -5.59758 28082 ft 418 kts 214°
2026-05-05 13:11 53.54254 -5.65094 28082 ft 418 kts 214°
2026-05-05 13:11 53.49397 -5.70367 28082 ft 419 kts 214°
2026-05-05 13:12 53.44498 -5.75680 28082 ft 419 kts 214°
2026-05-05 13:12 53.39599 -5.80997 28082 ft 419 kts 214°
2026-05-05 13:13 53.34699 -5.86310 28082 ft 420 kts 214°
2026-05-05 13:13 53.29790 -5.91612 28083 ft 421 kts 214°
2026-05-05 13:14 53.24861 -5.96911 28082 ft 422 kts 214°
2026-05-05 13:14 53.19922 -6.02208 28082 ft 422 kts 214°
2026-05-05 13:15 53.14966 -6.07514 28082 ft 424 kts 214°
2026-05-05 13:15 53.09993 -6.12829 28082 ft 426 kts 214°
2026-05-05 13:16 53.04994 -6.18148 28082 ft 427 kts 213°
2026-05-05 13:16 52.99977 -6.23466 28082 ft 428 kts 213°
2026-05-05 13:17 52.94949 -6.28790 28082 ft 429 kts 213°
2026-05-05 13:17 52.89914 -6.34113 28081 ft 430 kts 213°
2026-05-05 13:18 52.84853 -6.39435 28254 ft 433 kts 213°
2026-05-05 13:18 52.82300 -6.42111 28492 ft 435 kts 213°
2026-05-05 13:18 52.79742 -6.44794 28716 ft 437 kts 213°
2026-05-05 13:19 52.77201 -6.47452 28932 ft 439 kts 213°
2026-05-05 13:19 52.74614 -6.50154 29139 ft 441 kts 213°
2026-05-05 13:19 52.72018 -6.52866 29344 ft 443 kts 213°
2026-05-05 13:19 52.69404 -6.55592 29526 ft 445 kts 213°
2026-05-05 13:20 52.66780 -6.58318 29720 ft 447 kts 213°
2026-05-05 13:20 52.64149 -6.61050 29904 ft 448 kts 213°
2026-05-05 13:20 52.61507 -6.63792 30100 ft 450 kts 213°
2026-05-05 13:20 52.58873 -6.66544 30377 ft 449 kts 213°
2026-05-05 13:21 52.56238 -6.69318 30649 ft 448 kts 213°
2026-05-05 13:21 52.53617 -6.72092 30908 ft 448 kts 213°
2026-05-05 13:21 52.50998 -6.74863 31169 ft 448 kts 213°
2026-05-05 13:21 52.48379 -6.77628 31429 ft 447 kts 213°
2026-05-05 13:22 52.45758 -6.80383 31661 ft 447 kts 213°
2026-05-05 13:22 52.43141 -6.83127 31912 ft 447 kts 213°
2026-05-05 13:22 52.40527 -6.85866 32172 ft 446 kts 213°
2026-05-05 13:22 52.37916 -6.88597 32431 ft 445 kts 213°
2026-05-05 13:23 52.35302 -6.91325 32684 ft 445 kts 213°
2026-05-05 13:23 52.32691 -6.94043 32931 ft 444 kts 213°
2026-05-05 13:23 52.30087 -6.96751 33171 ft 444 kts 213°
2026-05-05 13:23 52.27483 -6.99452 33396 ft 443 kts 213°
2026-05-05 13:24 52.24883 -7.02144 33639 ft 442 kts 213°
2026-05-05 13:24 52.22284 -7.04830 33873 ft 442 kts 213°
2026-05-05 13:24 52.19689 -7.07507 34034 ft 442 kts 213°
2026-05-05 13:24 52.17101 -7.10169 34077 ft 438 kts 213°
2026-05-05 13:25 52.11937 -7.15396 34080 ft 436 kts 212°
2026-05-05 13:25 52.06777 -7.20572 34080 ft 435 kts 212°
2026-05-05 13:26 52.01910 -7.25444 34079 ft 435 kts 212°
2026-05-05 13:26 51.96789 -7.30571 34087 ft 435 kts 212°
2026-05-05 13:27 51.91630 -7.35732 34085 ft 436 kts 212°
2026-05-05 13:27 51.86459 -7.40894 34078 ft 437 kts 212°
2026-05-05 13:28 51.81277 -7.46045 34086 ft 437 kts 212°
2026-05-05 13:28 51.76090 -7.51181 34091 ft 437 kts 212°
2026-05-05 13:29 51.70903 -7.56307 34093 ft 437 kts 212°
2026-05-05 13:29 51.65720 -7.61415 34101 ft 437 kts 212°
2026-05-05 13:30 51.60532 -7.66519 34102 ft 437 kts 212°
2026-05-05 13:30 51.55383 -7.71570 34102 ft 436 kts 212°
2026-05-05 13:31 51.50193 -7.76630 34101 ft 437 kts 212°
2026-05-05 13:31 51.45001 -7.81688 34097 ft 436 kts 212°
2026-05-05 13:32 51.39813 -7.86734 34087 ft 436 kts 212°
2026-05-05 13:32 51.34619 -7.91774 34087 ft 437 kts 212°
2026-05-05 13:33 51.29416 -7.96805 34079 ft 437 kts 212°
2026-05-05 13:33 51.24202 -8.01826 34082 ft 438 kts 212°
2026-05-05 13:34 51.18978 -8.06857 34076 ft 439 kts 212°
2026-05-05 13:34 51.13741 -8.11894 34077 ft 440 kts 212°
2026-05-05 13:35 51.08486 -8.16919 34083 ft 441 kts 212°
2026-05-05 13:35 51.03214 -8.21928 34080 ft 442 kts 211°
2026-05-05 13:36 50.97566 -8.25767 34079 ft 444 kts 194°
2026-05-05 13:36 50.91519 -8.27770 34073 ft 445 kts 192°
2026-05-05 13:37 50.85449 -8.29744 34066 ft 445 kts 192°
2026-05-05 13:37 50.79411 -8.31719 34065 ft 447 kts 192°
2026-05-05 13:38 50.73315 -8.33718 34065 ft 448 kts 191°
2026-05-05 13:38 50.67206 -8.35699 34066 ft 449 kts 191°
2026-05-05 13:39 50.61080 -8.37675 34069 ft 450 kts 191°
2026-05-05 13:39 50.54942 -8.39654 34071 ft 451 kts 191°
2026-05-05 13:40 50.48782 -8.41633 34072 ft 452 kts 191°
2026-05-05 13:40 50.42620 -8.43615 34071 ft 452 kts 191°
2026-05-05 13:41 50.36449 -8.45596 34068 ft 453 kts 191°
2026-05-05 13:41 50.30274 -8.47567 34070 ft 453 kts 191°
2026-05-05 13:42 50.24088 -8.49531 34073 ft 454 kts 191°
2026-05-05 13:42 50.17898 -8.51498 34072 ft 454 kts 191°
2026-05-05 13:43 50.11702 -8.53464 34075 ft 455 kts 191°
2026-05-05 13:43 50.05503 -8.55428 34074 ft 455 kts 191°
2026-05-05 13:44 49.99299 -8.57386 34079 ft 455 kts 191°
2026-05-05 13:44 49.93088 -8.59327 34073 ft 456 kts 191°
2026-05-05 13:45 49.86868 -8.61280 34073 ft 456 kts 191°
2026-05-05 13:45 49.80636 -8.63230 34074 ft 457 kts 191°
2026-05-05 13:46 49.74439 -8.65165 34078 ft 457 kts 191°
2026-05-05 13:46 49.68206 -8.67109 34081 ft 457 kts 191°
2026-05-05 13:47 49.61966 -8.69035 34082 ft 457 kts 191°
2026-05-05 13:47 49.55726 -8.70969 34081 ft 457 kts 191°
2026-05-05 13:48 49.49486 -8.72895 34084 ft 457 kts 191°
2026-05-05 13:48 49.43244 -8.74820 34080 ft 457 kts 191°
2026-05-05 13:49 49.37003 -8.76734 34078 ft 457 kts 191°
2026-05-05 13:49 49.30767 -8.78635 34073 ft 457 kts 191°
2026-05-05 13:50 49.24525 -8.80549 34066 ft 458 kts 191°
2026-05-05 13:50 49.18273 -8.82455 34059 ft 458 kts 191°
2026-05-05 13:51 49.12021 -8.84352 34056 ft 458 kts 191°
2026-05-05 13:51 49.05763 -8.86238 34053 ft 458 kts 191°
2026-05-05 13:52 48.99502 -8.88125 34051 ft 459 kts 191°
2026-05-05 13:52 48.93240 -8.90014 34047 ft 459 kts 191°
2026-05-05 13:53 48.87019 -8.91893 34039 ft 459 kts 191°
2026-05-05 13:53 48.80756 -8.93762 34039 ft 459 kts 191°
2026-05-05 13:54 48.74479 -8.95631 34044 ft 460 kts 191°
2026-05-05 13:54 48.68198 -8.97512 34038 ft 460 kts 191°
2026-05-05 13:55 48.61908 -8.99385 34043 ft 460 kts 190°
2026-05-05 13:55 48.55541 -9.00002 34038 ft 459 kts 179°
2026-05-05 13:56 48.49146 -8.99985 34028 ft 460 kts 179°
2026-05-05 13:56 48.42745 -8.99994 34036 ft 460 kts 179°
2026-05-05 13:57 48.36341 -9.00003 34037 ft 460 kts 179°
2026-05-05 13:57 48.29936 -9.00005 34028 ft 461 kts 179°
2026-05-05 13:58 48.23527 -9.00000 34033 ft 460 kts 179°
2026-05-05 13:58 48.18201 -9.00004 34039 ft 461 kts 179°
2026-05-05 13:59 48.07539 -9.00000 34037 ft 461 kts 179°
2026-05-05 14:00 47.98952 -9.00004 34050 ft 461 kts 179°
2026-05-05 14:00 47.92575 -9.00006 34054 ft 462 kts 179°
2026-05-05 14:01 47.86105 -9.00013 34052 ft 462 kts 179°
2026-05-05 14:01 47.79717 -9.00010 34056 ft 462 kts 179°
2026-05-05 14:02 47.73290 -9.00007 34057 ft 462 kts 179°
2026-05-05 14:02 47.66863 -8.99997 34058 ft 462 kts 179°
2026-05-05 14:03 47.60433 -8.99984 34061 ft 462 kts 179°
2026-05-05 14:03 47.53993 -9.00000 34067 ft 462 kts 179°
2026-05-05 14:04 47.47557 -9.00016 34068 ft 463 kts 179°
2026-05-05 14:04 47.41123 -9.00011 34069 ft 463 kts 179°
2026-05-05 14:05 47.34682 -9.00005 34068 ft 463 kts 179°
2026-05-05 14:05 47.28245 -9.00000 34070 ft 463 kts 179°
2026-05-05 14:06 47.21806 -9.00005 34071 ft 463 kts 179°
2026-05-05 14:06 47.15363 -9.00012 34074 ft 463 kts 179°
2026-05-05 14:07 47.08923 -9.00006 34073 ft 463 kts 179°
2026-05-05 14:07 47.02481 -9.00000 34073 ft 463 kts 179°
2026-05-05 14:08 46.96086 -9.00001 34073 ft 463 kts 179°
2026-05-05 14:08 46.89644 -9.00004 34069 ft 463 kts 179°
2026-05-05 14:09 46.83204 -8.99999 34071 ft 463 kts 179°
2026-05-05 14:09 46.76769 -8.99994 34070 ft 462 kts 179°
2026-05-05 14:10 46.70338 -8.99992 34070 ft 462 kts 179°
2026-05-05 14:10 46.63910 -8.99999 34069 ft 462 kts 180°
2026-05-05 14:11 46.57479 -9.00010 34069 ft 462 kts 179°
2026-05-05 14:11 46.51053 -9.00010 34068 ft 462 kts 180°
2026-05-05 14:12 46.44625 -9.00012 34066 ft 462 kts 179°
2026-05-05 14:12 46.38201 -9.00012 34065 ft 462 kts 180°
2026-05-05 14:13 46.31774 -9.00008 34062 ft 462 kts 180°
2026-05-05 14:13 46.25346 -9.00005 34066 ft 462 kts 180°
2026-05-05 14:14 46.18915 -9.00012 34063 ft 462 kts 180°
2026-05-05 14:14 46.12485 -9.00006 34064 ft 462 kts 180°
2026-05-05 14:15 46.06054 -8.99995 34065 ft 462 kts 180°
2026-05-05 14:15 45.99627 -9.00004 34067 ft 462 kts 180°
2026-05-05 14:16 45.93198 -9.00014 34063 ft 462 kts 180°
2026-05-05 14:16 45.86765 -9.00004 34062 ft 463 kts 180°
2026-05-05 14:17 45.80368 -9.00001 34062 ft 463 kts 180°
2026-05-05 14:17 45.73931 -9.00005 34064 ft 463 kts 180°
2026-05-05 14:18 45.67491 -9.00018 34064 ft 463 kts 180°
2026-05-05 14:18 45.61055 -9.00018 34064 ft 463 kts 180°
2026-05-05 14:19 45.54609 -9.00007 34067 ft 463 kts 180°
2026-05-05 14:19 45.48170 -9.00004 34064 ft 463 kts 181°
2026-05-05 14:20 45.41721 -9.00002 34065 ft 463 kts 181°
2026-05-05 14:20 45.35265 -9.00004 34062 ft 464 kts 181°
2026-05-05 14:21 45.28813 -9.00000 34066 ft 464 kts 181°
2026-05-05 14:21 45.22358 -8.99998 34065 ft 464 kts 181°
2026-05-05 14:22 45.15900 -9.00005 34064 ft 464 kts 181°
2026-05-05 14:22 45.09443 -9.00010 34065 ft 464 kts 181°
2026-05-05 14:23 45.06226 -9.00174 34057 ft 461 kts 192°
2026-05-05 14:23 45.03178 -9.01454 34061 ft 456 kts 205°
2026-05-05 14:23 44.97118 -9.04155 34056 ft 459 kts 197°
2026-05-05 14:24 44.90940 -9.06450 34054 ft 458 kts 202°
2026-05-05 14:24 44.85117 -9.10008 34057 ft 456 kts 210°
2026-05-05 14:25 44.79504 -9.14155 34055 ft 455 kts 211°
2026-05-05 14:25 44.73891 -9.18310 34056 ft 456 kts 210°
2026-05-05 14:26 44.68208 -9.22300 34058 ft 457 kts 209°
2026-05-05 14:26 44.62488 -9.26211 34060 ft 457 kts 209°
2026-05-05 14:27 44.56776 -9.30144 34063 ft 457 kts 210°
2026-05-05 14:27 44.51105 -9.34061 34066 ft 457 kts 210°
2026-05-05 14:28 44.45394 -9.38001 34063 ft 458 kts 210°
2026-05-05 14:28 44.39676 -9.41931 34063 ft 458 kts 210°
2026-05-05 14:29 44.33959 -9.45847 34064 ft 457 kts 210°
2026-05-05 14:29 44.28245 -9.49761 34063 ft 457 kts 210°
2026-05-05 14:30 44.22534 -9.53675 34064 ft 457 kts 210°
2026-05-05 14:30 44.16822 -9.57577 34063 ft 457 kts 210°
2026-05-05 14:31 44.11099 -9.61468 34064 ft 458 kts 210°
2026-05-05 14:31 44.05377 -9.65345 34065 ft 458 kts 210°
2026-05-05 14:32 43.99649 -9.69225 34062 ft 458 kts 211°
2026-05-05 14:32 43.93922 -9.73102 34064 ft 458 kts 211°
2026-05-05 14:33 43.88193 -9.76974 34066 ft 458 kts 211°
2026-05-05 14:33 43.82505 -9.80800 34066 ft 458 kts 211°
2026-05-05 14:34 43.76765 -9.84647 34066 ft 458 kts 211°
2026-05-05 14:34 43.71033 -9.88497 34069 ft 458 kts 211°
2026-05-05 14:35 43.65298 -9.92338 34070 ft 458 kts 210°
2026-05-05 14:35 43.59558 -9.96156 34070 ft 458 kts 210°
2026-05-05 14:36 43.53823 -9.99974 34070 ft 457 kts 211°
2026-05-05 14:36 43.48095 -10.03787 34074 ft 457 kts 211°
2026-05-05 14:37 43.42369 -10.07581 34079 ft 457 kts 211°
2026-05-05 14:37 43.36646 -10.11370 34079 ft 456 kts 211°
2026-05-05 14:38 43.30930 -10.15150 34082 ft 456 kts 211°
2026-05-05 14:38 43.25215 -10.18919 34085 ft 455 kts 211°
2026-05-05 14:39 43.19551 -10.22645 34085 ft 454 kts 211°
2026-05-05 14:39 43.13852 -10.26380 34086 ft 453 kts 211°
2026-05-05 14:40 43.08170 -10.30106 34087 ft 453 kts 212°
2026-05-05 14:40 43.02494 -10.33820 34086 ft 452 kts 212°
2026-05-05 14:41 42.96819 -10.37526 34086 ft 451 kts 212°
2026-05-05 14:41 42.91154 -10.41211 34089 ft 451 kts 212°
2026-05-05 14:42 42.85499 -10.44888 34087 ft 450 kts 212°
2026-05-05 14:42 42.79845 -10.48544 34091 ft 450 kts 212°
2026-05-05 14:43 42.74197 -10.52189 34090 ft 449 kts 212°
2026-05-05 14:43 42.68555 -10.55844 34087 ft 449 kts 212°
2026-05-05 14:44 42.62917 -10.59480 34087 ft 448 kts 212°
2026-05-05 14:44 42.57277 -10.63106 34085 ft 448 kts 212°
2026-05-05 14:45 42.51639 -10.66723 34096 ft 448 kts 212°
2026-05-05 14:45 42.46005 -10.70325 34091 ft 447 kts 212°
2026-05-05 14:46 42.40378 -10.73914 34086 ft 447 kts 212°
2026-05-05 14:46 42.34793 -10.77476 34088 ft 446 kts 212°
2026-05-05 14:47 42.29175 -10.81058 34091 ft 446 kts 212°
2026-05-05 14:47 42.23587 -10.84691 34091 ft 445 kts 213°
2026-05-05 14:48 42.18057 -10.88418 34101 ft 444 kts 213°
2026-05-05 14:48 42.12537 -10.92125 34102 ft 443 kts 213°
2026-05-05 14:49 42.07005 -10.95793 34105 ft 443 kts 213°
2026-05-05 14:49 42.01481 -10.99453 34103 ft 442 kts 213°
2026-05-05 14:50 41.95965 -11.03104 34116 ft 441 kts 213°
2026-05-05 14:50 41.90465 -11.06719 34125 ft 439 kts 213°
2026-05-05 14:51 41.85919 -11.09716 34125 ft 437 kts 213°
2026-05-05 14:51 41.80472 -11.13304 34121 ft 435 kts 213°
2026-05-05 14:52 41.75045 -11.16882 34120 ft 434 kts 213°
2026-05-05 14:52 41.69611 -11.20436 34118 ft 435 kts 212°
2026-05-05 14:53 41.64182 -11.23983 34117 ft 434 kts 213°
2026-05-05 14:53 41.58770 -11.27526 34114 ft 433 kts 212°
2026-05-05 14:54 41.53361 -11.31049 34113 ft 432 kts 212°
2026-05-05 14:54 41.47962 -11.34563 34106 ft 431 kts 212°
2026-05-05 14:55 41.42570 -11.38061 34099 ft 430 kts 212°
2026-05-05 14:55 41.37187 -11.41545 34094 ft 430 kts 212°
2026-05-05 14:56 41.31798 -11.45017 34097 ft 430 kts 212°
2026-05-05 14:56 41.26413 -11.48488 34098 ft 430 kts 212°
2026-05-05 14:57 41.21035 -11.51966 34104 ft 430 kts 212°
2026-05-05 14:57 41.15655 -11.55431 34109 ft 430 kts 212°
2026-05-05 14:58 41.10275 -11.58883 34113 ft 429 kts 212°
2026-05-05 14:58 41.04903 -11.62329 34118 ft 429 kts 212°
2026-05-05 14:59 40.99567 -11.65743 34123 ft 428 kts 212°
2026-05-05 14:59 40.94171 -11.69187 34123 ft 427 kts 212°
2026-05-05 15:00 40.89728 -11.72020 34122 ft 427 kts 212°
2026-05-05 15:00 40.83512 -11.75963 34121 ft 426 kts 212°
2026-05-05 15:01 40.78172 -11.79363 34122 ft 426 kts 212°
2026-05-05 15:01 40.72842 -11.82745 34120 ft 425 kts 211°
2026-05-05 15:02 40.67512 -11.86113 34120 ft 424 kts 211°
2026-05-05 15:02 40.62196 -11.89475 34116 ft 423 kts 211°
2026-05-05 15:03 40.56886 -11.92829 34115 ft 423 kts 211°
2026-05-05 15:03 40.51577 -11.96175 34118 ft 423 kts 211°
2026-05-05 15:04 40.46268 -11.99500 34119 ft 423 kts 211°
2026-05-05 15:04 40.40962 -12.02820 34122 ft 422 kts 211°
2026-05-05 15:05 40.33010 -12.07797 34125 ft 422 kts 211°
2026-05-05 15:06 40.27716 -12.11112 34128 ft 422 kts 211°
2026-05-05 15:06 40.22425 -12.14407 34128 ft 421 kts 211°
2026-05-05 15:07 40.17175 -12.17678 34126 ft 420 kts 211°
2026-05-05 15:07 40.11892 -12.20955 34124 ft 421 kts 211°
2026-05-05 15:08 40.06604 -12.24227 34122 ft 420 kts 211°
2026-05-05 15:08 40.01312 -12.27507 34123 ft 421 kts 211°
2026-05-05 15:09 39.96019 -12.30779 34128 ft 421 kts 211°
2026-05-05 15:09 39.90727 -12.34046 34130 ft 421 kts 211°
2026-05-05 15:10 39.85442 -12.37308 34130 ft 420 kts 211°
2026-05-05 15:10 39.80167 -12.40555 34128 ft 419 kts 210°
2026-05-05 15:11 39.74889 -12.43782 34123 ft 419 kts 210°
2026-05-05 15:11 39.69606 -12.47018 34121 ft 424 kts 210°
2026-05-05 15:12 39.64206 -12.50352 34119 ft 436 kts 210°
2026-05-05 15:12 39.58702 -12.53712 34118 ft 442 kts 210°
2026-05-05 15:13 39.53133 -12.57083 34116 ft 440 kts 210°
2026-05-05 15:13 39.47594 -12.60438 34115 ft 439 kts 210°
2026-05-05 15:14 39.42074 -12.63803 34119 ft 438 kts 210°
2026-05-05 15:14 39.36559 -12.67154 34117 ft 438 kts 210°
2026-05-05 15:15 39.31040 -12.70494 34122 ft 438 kts 210°
2026-05-05 15:15 39.25523 -12.73829 34124 ft 438 kts 210°
2026-05-05 15:16 39.20012 -12.77150 34128 ft 437 kts 210°
2026-05-05 15:16 39.14503 -12.80468 34131 ft 437 kts 210°
2026-05-05 15:17 39.09001 -12.83776 34130 ft 436 kts 210°
2026-05-05 15:17 39.03510 -12.87068 34128 ft 435 kts 210°
2026-05-05 15:18 38.98025 -12.90346 34128 ft 435 kts 210°
2026-05-05 15:18 38.92549 -12.93618 34128 ft 434 kts 210°
2026-05-05 15:19 38.87076 -12.96885 34124 ft 433 kts 210°
2026-05-05 15:19 38.81615 -13.00144 34121 ft 432 kts 210°
2026-05-05 15:20 38.76164 -13.03395 34120 ft 432 kts 210°
2026-05-05 15:20 38.70716 -13.06631 34118 ft 431 kts 210°
2026-05-05 15:21 38.65275 -13.09858 34116 ft 431 kts 210°
2026-05-05 15:21 38.59875 -13.13049 34112 ft 430 kts 209°
2026-05-05 15:22 38.54443 -13.16260 34112 ft 430 kts 209°
2026-05-05 15:22 38.49020 -13.19459 34114 ft 429 kts 209°
2026-05-05 15:23 38.43606 -13.22659 34116 ft 429 kts 209°
2026-05-05 15:23 38.38193 -13.25840 34115 ft 428 kts 209°
2026-05-05 15:24 38.32783 -13.29005 34118 ft 427 kts 209°
2026-05-05 15:24 38.27382 -13.32164 34122 ft 427 kts 209°
2026-05-05 15:25 38.21985 -13.35319 34123 ft 427 kts 209°
2026-05-05 15:25 38.16597 -13.38477 34127 ft 426 kts 209°
2026-05-05 15:26 38.11212 -13.41627 34128 ft 426 kts 209°
2026-05-05 15:26 38.05828 -13.44755 34125 ft 425 kts 209°
2026-05-05 15:27 38.00451 -13.47872 34122 ft 425 kts 209°
2026-05-05 15:27 37.95083 -13.50988 34126 ft 424 kts 209°
2026-05-05 15:28 37.89724 -13.54103 34125 ft 423 kts 209°
2026-05-05 15:28 37.84403 -13.57177 34123 ft 423 kts 209°
2026-05-05 15:29 37.79050 -13.60265 34120 ft 422 kts 209°
2026-05-05 15:29 37.73705 -13.63346 34116 ft 422 kts 209°
2026-05-05 15:30 37.68365 -13.66424 34111 ft 422 kts 209°
2026-05-05 15:30 37.63022 -13.69493 34104 ft 422 kts 209°
2026-05-05 15:31 37.57683 -13.72562 34099 ft 422 kts 209°
2026-05-05 15:31 37.52336 -13.75631 34093 ft 423 kts 209°
2026-05-05 15:32 37.46980 -13.78689 34098 ft 423 kts 209°
2026-05-05 15:32 37.41618 -13.81745 34099 ft 423 kts 208°
2026-05-05 15:33 37.36253 -13.84805 34101 ft 424 kts 209°
2026-05-05 15:33 37.30882 -13.87873 34104 ft 424 kts 208°
2026-05-05 15:34 37.25507 -13.90926 34106 ft 424 kts 208°
2026-05-05 15:34 37.20123 -13.93984 34108 ft 425 kts 208°
2026-05-05 15:35 37.14770 -13.97014 34109 ft 425 kts 208°
2026-05-05 15:35 37.09369 -14.00060 34115 ft 426 kts 208°
2026-05-05 15:36 37.03961 -14.03118 34121 ft 426 kts 208°
2026-05-05 15:36 36.98549 -14.06183 34120 ft 428 kts 208°
2026-05-05 15:37 36.93116 -14.09248 34120 ft 429 kts 208°
2026-05-05 15:37 36.87675 -14.12306 34120 ft 429 kts 208°
2026-05-05 15:38 36.82221 -14.15350 34120 ft 430 kts 208°
2026-05-05 15:38 36.76766 -14.18408 34117 ft 430 kts 208°
2026-05-05 15:39 36.71310 -14.21472 34118 ft 430 kts 208°
2026-05-05 15:39 36.65845 -14.24530 34119 ft 431 kts 207°
2026-05-05 15:40 36.60338 -14.27497 34117 ft 432 kts 206°
2026-05-05 15:40 36.54795 -14.30383 34118 ft 432 kts 206°
2026-05-05 15:41 36.49249 -14.33268 34113 ft 432 kts 206°
2026-05-05 15:41 36.43714 -14.36176 34115 ft 432 kts 206°
2026-05-05 15:42 36.39110 -14.38599 34119 ft 433 kts 206°
2026-05-05 15:42 36.33567 -14.41504 34122 ft 432 kts 206°
2026-05-05 15:43 36.27126 -14.44876 34123 ft 432 kts 206°
2026-05-05 15:43 36.21583 -14.47778 34121 ft 433 kts 206°
2026-05-05 15:44 36.16931 -14.50206 34116 ft 433 kts 206°
2026-05-05 15:44 36.11376 -14.53094 34116 ft 433 kts 206°
2026-05-05 15:45 36.05812 -14.55982 34116 ft 434 kts 206°
2026-05-05 15:45 36.00284 -14.58853 34120 ft 434 kts 206°
2026-05-05 15:46 35.94719 -14.61749 34118 ft 434 kts 206°
2026-05-05 15:46 35.89147 -14.64647 34112 ft 435 kts 206°
2026-05-05 15:47 35.83568 -14.67526 34111 ft 435 kts 206°
2026-05-05 15:47 35.77985 -14.70401 34109 ft 435 kts 206°
2026-05-05 15:48 35.72395 -14.73286 34110 ft 436 kts 206°
2026-05-05 15:48 35.66802 -14.76165 34108 ft 436 kts 205°
2026-05-05 15:49 35.61194 -14.79042 34109 ft 437 kts 205°
2026-05-05 15:49 35.55578 -14.81928 34113 ft 438 kts 205°
2026-05-05 15:50 35.49952 -14.84816 34117 ft 439 kts 205°
2026-05-05 15:50 35.44308 -14.87697 34120 ft 439 kts 205°
2026-05-05 15:51 35.38661 -14.90574 34123 ft 440 kts 205°
2026-05-05 15:51 35.33006 -14.93457 34125 ft 440 kts 205°
2026-05-05 15:52 35.27348 -14.96339 34127 ft 440 kts 205°
2026-05-05 15:52 35.21685 -14.99219 34125 ft 441 kts 205°
2026-05-05 15:53 35.16021 -15.02096 34127 ft 441 kts 205°
2026-05-05 15:53 35.10356 -15.04971 34128 ft 441 kts 205°
2026-05-05 15:54 35.04686 -15.07840 34130 ft 441 kts 205°
2026-05-05 15:54 34.99016 -15.10705 34129 ft 441 kts 205°
2026-05-05 15:55 34.93380 -15.13551 34129 ft 441 kts 205°
2026-05-05 15:55 34.87703 -15.16413 34129 ft 442 kts 205°
2026-05-05 15:56 34.82017 -15.19274 34130 ft 443 kts 205°
2026-05-05 15:56 34.76321 -15.22130 34131 ft 443 kts 205°
2026-05-05 15:57 34.70623 -15.24984 34134 ft 443 kts 205°
2026-05-05 15:57 34.64928 -15.27838 34132 ft 443 kts 204°
2026-05-05 15:58 34.59225 -15.30691 34131 ft 443 kts 204°
2026-05-05 15:58 34.53525 -15.33535 34129 ft 443 kts 204°
2026-05-05 15:59 34.47791 -15.36288 34125 ft 444 kts 203°
2026-05-05 15:59 34.42003 -15.38906 34124 ft 444 kts 202°
2026-05-05 16:00 34.36212 -15.41519 34126 ft 444 kts 202°
2026-05-05 16:00 34.30424 -15.44162 34128 ft 445 kts 203°
2026-05-05 16:01 34.24637 -15.46830 34129 ft 445 kts 203°
2026-05-05 16:01 34.18852 -15.49489 34131 ft 445 kts 202°
2026-05-05 16:02 34.13058 -15.52129 34133 ft 445 kts 202°
2026-05-05 16:02 34.07258 -15.54766 34135 ft 445 kts 202°
2026-05-05 16:03 34.01459 -15.57405 34134 ft 446 kts 202°
2026-05-05 16:03 33.95648 -15.60047 34137 ft 446 kts 202°
2026-05-05 16:04 33.89845 -15.62688 34140 ft 446 kts 202°
2026-05-05 16:04 33.84076 -15.65307 34140 ft 446 kts 202°
2026-05-05 16:05 33.78271 -15.67935 34138 ft 446 kts 202°
2026-05-05 16:05 33.72464 -15.70568 34141 ft 446 kts 202°
2026-05-05 16:06 33.66649 -15.73193 34142 ft 446 kts 202°
2026-05-05 16:06 33.60830 -15.75810 34143 ft 447 kts 202°
2026-05-05 16:07 33.55011 -15.78417 34143 ft 447 kts 201°
2026-05-05 16:07 33.49097 -15.80731 34146 ft 447 kts 199°
2026-05-05 16:08 33.43121 -15.82831 34143 ft 448 kts 198°
2026-05-05 16:08 33.37146 -15.84952 34145 ft 447 kts 199°
2026-05-05 16:09 33.31195 -15.87133 34143 ft 447 kts 199°
2026-05-05 16:09 33.25253 -15.89340 34143 ft 447 kts 199°
2026-05-05 16:10 33.19305 -15.91536 34141 ft 448 kts 199°
2026-05-05 16:10 33.13348 -15.93723 34142 ft 448 kts 199°
2026-05-05 16:11 33.07391 -15.95898 34141 ft 448 kts 199°
2026-05-05 16:12 32.95512 -16.00231 34135 ft 448 kts 199°
2026-05-05 16:13 32.80563 -16.05674 34111 ft 451 kts 199°
2026-05-05 16:13 32.74561 -16.07855 34109 ft 451 kts 199°
2026-05-05 16:14 32.62520 -16.12218 34115 ft 453 kts 199°
2026-05-05 16:15 32.50466 -16.16571 34122 ft 453 kts 199°
2026-05-05 16:16 32.38383 -16.20922 34118 ft 454 kts 199°
2026-05-05 16:17 32.29307 -16.24180 34108 ft 455 kts 199°
2026-05-05 16:18 32.20222 -16.27449 34104 ft 455 kts 199°
2026-05-05 16:19 32.11127 -16.30701 34107 ft 455 kts 199°
2026-05-05 16:19 32.02070 -16.33934 34107 ft 455 kts 199°
2026-05-05 16:20 31.89948 -16.38254 34122 ft 454 kts 199°
2026-05-05 16:22 31.74844 -16.43621 34135 ft 453 kts 199°
2026-05-05 16:23 31.62810 -16.47877 34134 ft 450 kts 200°
2026-05-05 16:23 31.53821 -16.51051 34135 ft 449 kts 200°
2026-05-05 16:24 31.47837 -16.53151 34134 ft 448 kts 200°
2026-05-05 16:25 31.38711 -16.55428 34134 ft 454 kts 183°
2026-05-05 16:25 31.29241 -16.54531 34130 ft 455 kts 179°
2026-05-05 16:26 31.16661 -16.53226 34132 ft 453 kts 180°
2026-05-05 16:27 31.10400 -16.52584 34133 ft 451 kts 180°
2026-05-05 16:27 31.04161 -16.51942 34132 ft 449 kts 181°
2026-05-05 16:28 30.97935 -16.51310 34131 ft 448 kts 181°
2026-05-05 16:28 30.91737 -16.50672 34128 ft 446 kts 181°
2026-05-05 16:29 30.85563 -16.50038 34127 ft 445 kts 182°
2026-05-05 16:29 30.79409 -16.49407 34126 ft 443 kts 182°
2026-05-05 16:30 30.73279 -16.48786 34124 ft 441 kts 182°
2026-05-05 16:30 30.67176 -16.48167 34126 ft 439 kts 183°
2026-05-05 16:31 30.61098 -16.47549 34125 ft 438 kts 183°
2026-05-05 16:31 30.55077 -16.46935 34123 ft 436 kts 184°
2026-05-05 16:32 30.50017 -16.46419 34121 ft 435 kts 184°
2026-05-05 16:32 30.44003 -16.45807 34119 ft 433 kts 184°
2026-05-05 16:33 30.38010 -16.45207 34117 ft 431 kts 184°
2026-05-05 16:33 30.32038 -16.44606 34114 ft 430 kts 185°
2026-05-05 16:34 30.26086 -16.44006 34113 ft 429 kts 185°
2026-05-05 16:34 30.20148 -16.43405 34112 ft 428 kts 185°
2026-05-05 16:35 30.14235 -16.42804 34112 ft 426 kts 185°
2026-05-05 16:35 30.08340 -16.42209 34112 ft 425 kts 185°
2026-05-05 16:36 30.02451 -16.41617 34107 ft 424 kts 185°
2026-05-05 16:36 29.96581 -16.41036 34103 ft 423 kts 186°
2026-05-05 16:37 29.90722 -16.40455 34102 ft 422 kts 186°
2026-05-05 16:37 29.84924 -16.39871 34097 ft 421 kts 186°
2026-05-05 16:38 29.79094 -16.39272 34091 ft 420 kts 186°
2026-05-05 16:38 29.73270 -16.38686 34082 ft 420 kts 186°
2026-05-05 16:39 29.67445 -16.38108 34078 ft 420 kts 186°
2026-05-05 16:39 29.61682 -16.37916 34071 ft 403 kts 198°
2026-05-05 16:40 29.59003 -16.38653 34069 ft 390 kts 208°
2026-05-05 16:40 29.56576 -16.39942 34067 ft 381 kts 217°
2026-05-05 16:40 29.52443 -16.43606 34064 ft 375 kts 224°
2026-05-05 16:41 29.48408 -16.47421 34059 ft 376 kts 224°
2026-05-05 16:41 29.44359 -16.51232 34056 ft 377 kts 224°
2026-05-05 16:42 29.40303 -16.55042 34057 ft 377 kts 224°
2026-05-05 16:42 29.36240 -16.58854 34056 ft 378 kts 224°
2026-05-05 16:43 29.32172 -16.62677 34060 ft 378 kts 224°
2026-05-05 16:43 29.28100 -16.66505 34061 ft 379 kts 224°
2026-05-05 16:44 29.26090 -16.68388 34074 ft 366 kts 224°
2026-05-05 16:44 29.24151 -16.70197 34082 ft 356 kts 224°
2026-05-05 16:44 29.20346 -16.73751 34079 ft 352 kts 224°
2026-05-05 16:45 29.16588 -16.77275 33820 ft 344 kts 224°
2026-05-05 16:45 29.14746 -16.79002 33571 ft 341 kts 224°
2026-05-05 16:45 29.12919 -16.80716 33318 ft 339 kts 224°
2026-05-05 16:46 29.11097 -16.82422 33068 ft 338 kts 224°
2026-05-05 16:46 29.09281 -16.84119 32817 ft 337 kts 224°
2026-05-05 16:46 29.07473 -16.85810 32567 ft 336 kts 224°
2026-05-05 16:46 29.05668 -16.87495 32316 ft 335 kts 224°
2026-05-05 16:47 29.03861 -16.89177 32066 ft 334 kts 224°
2026-05-05 16:47 29.02064 -16.90854 31816 ft 334 kts 224°
2026-05-05 16:47 29.00273 -16.92524 31564 ft 329 kts 224°
2026-05-05 16:47 28.98516 -16.94158 31202 ft 323 kts 224°
2026-05-05 16:48 28.96789 -16.95763 30823 ft 318 kts 224°
2026-05-05 16:48 28.95086 -16.97347 30450 ft 313 kts 224°
2026-05-05 16:48 28.93409 -16.98908 30086 ft 308 kts 224°
2026-05-05 16:48 28.91759 -17.00442 29732 ft 304 kts 224°
2026-05-05 16:49 28.90135 -17.01952 29384 ft 299 kts 224°
2026-05-05 16:49 28.88535 -17.03440 29050 ft 295 kts 224°
2026-05-05 16:49 28.86947 -17.04914 28719 ft 294 kts 224°
2026-05-05 16:49 28.85365 -17.06382 28389 ft 293 kts 223°
2026-05-05 16:50 28.83789 -17.07845 28052 ft 292 kts 223°
2026-05-05 16:50 28.82216 -17.09302 27719 ft 291 kts 223°
2026-05-05 16:50 28.80645 -17.10755 27393 ft 290 kts 223°
2026-05-05 16:50 28.79103 -17.12188 27060 ft 290 kts 223°
2026-05-05 16:51 28.77546 -17.13639 26723 ft 289 kts 223°
2026-05-05 16:51 28.75991 -17.15080 26391 ft 287 kts 223°
2026-05-05 16:51 28.74416 -17.16529 26040 ft 287 kts 223°
2026-05-05 16:51 28.72882 -17.17925 25645 ft 287 kts 220°
2026-05-05 16:52 28.71033 -17.18935 24864 ft 308 kts 199°
2026-05-05 16:52 28.68806 -17.18956 24009 ft 339 kts 175°
2026-05-05 16:52 28.66494 -17.18099 23080 ft 357 kts 169°
2026-05-05 16:52 28.64115 -17.17107 22130 ft 370 kts 168°
2026-05-05 16:53 28.61710 -17.16064 21685 ft 368 kts 167°
2026-05-05 16:53 28.59339 -17.15021 21275 ft 363 kts 167°
2026-05-05 16:53 28.56986 -17.13991 20804 ft 361 kts 167°
2026-05-05 16:53 28.54648 -17.12984 20353 ft 358 kts 168°
2026-05-05 16:54 28.52325 -17.11997 19895 ft 355 kts 168°
2026-05-05 16:54 28.50014 -17.11026 19444 ft 353 kts 168°
2026-05-05 16:54 28.47715 -17.10062 19001 ft 351 kts 168°
2026-05-05 16:54 28.45430 -17.09104 18569 ft 349 kts 168°
2026-05-05 16:55 28.43161 -17.08156 18121 ft 347 kts 168°
2026-05-05 16:55 28.40901 -17.07212 17681 ft 345 kts 168°
2026-05-05 16:55 28.38656 -17.06274 17234 ft 343 kts 168°
2026-05-05 16:55 28.36425 -17.05339 16814 ft 341 kts 167°
2026-05-05 16:56 28.34206 -17.04408 16392 ft 339 kts 167°
2026-05-05 16:56 28.31998 -17.03482 15960 ft 337 kts 167°
2026-05-05 16:56 28.29803 -17.02560 15537 ft 336 kts 167°
2026-05-05 16:56 28.27619 -17.01642 15135 ft 333 kts 167°
2026-05-05 16:57 28.25453 -17.00729 14731 ft 332 kts 166°
2026-05-05 16:57 28.23294 -16.99822 14315 ft 330 kts 166°
2026-05-05 16:57 28.21152 -16.98922 14059 ft 324 kts 166°
2026-05-05 16:57 28.19073 -16.98045 13931 ft 314 kts 166°
2026-05-05 16:58 28.17056 -16.97194 13805 ft 305 kts 166°
2026-05-05 16:58 28.15101 -16.96357 13678 ft 296 kts 166°
2026-05-05 16:58 28.13206 -16.95517 13552 ft 288 kts 165°
2026-05-05 16:58 28.11374 -16.94695 13414 ft 277 kts 165°
2026-05-05 16:59 28.09608 -16.93900 12976 ft 271 kts 165°
2026-05-05 16:59 28.07803 -16.93097 11941 ft 288 kts 165°
2026-05-05 16:59 28.05906 -16.92258 11141 ft 294 kts 163°
2026-05-05 16:59 28.04011 -16.91420 10533 ft 290 kts 165°
2026-05-05 17:00 28.02078 -16.91162 9925 ft 276 kts 195°
2026-05-05 17:00 28.00420 -16.92112 9301 ft 267 kts 227°
2026-05-05 17:00 27.99373 -16.93832 8579 ft 268 kts 245°
2026-05-05 17:00 27.98666 -16.95781 7862 ft 270 kts 251°
2026-05-05 17:01 27.98063 -16.97802 7137 ft 271 kts 252°
2026-05-05 17:01 27.97460 -16.99825 6414 ft 272 kts 251°
2026-05-05 17:01 27.96642 -17.01742 5719 ft 272 kts 232°
2026-05-05 17:01 27.95284 -17.03095 5554 ft 251 kts 210°
2026-05-05 17:02 27.93715 -17.03735 5470 ft 232 kts 188°
2026-05-05 17:02 27.92137 -17.03688 5357 ft 225 kts 167°
2026-05-05 17:02 27.90713 -17.03036 5232 ft 219 kts 147°
2026-05-05 17:02 27.89604 -17.01909 5162 ft 217 kts 128°
2026-05-05 17:03 27.88874 -17.00414 5069 ft 219 kts 108°
2026-05-05 17:03 27.88635 -16.98725 4959 ft 219 kts 88°
2026-05-05 17:03 27.88915 -16.97046 4830 ft 218 kts 68°
2026-05-05 17:03 27.89773 -16.95687 4732 ft 214 kts 36°
2026-05-05 17:04 27.90928 -16.94629 4653 ft 215 kts 46°
2026-05-05 17:04 27.91775 -16.93237 4494 ft 215 kts 62°
2026-05-05 17:04 27.92391 -16.91698 4431 ft 215 kts 66°
2026-05-05 17:04 27.92949 -16.90128 4408 ft 215 kts 67°
2026-05-05 17:05 27.93500 -16.88554 4396 ft 215 kts 67°
2026-05-05 17:05 27.94051 -16.86985 4361 ft 214 kts 67°
2026-05-05 17:05 27.94596 -16.85436 4313 ft 215 kts 67°
2026-05-05 17:05 27.95150 -16.83851 4294 ft 214 kts 67°
2026-05-05 17:06 27.95692 -16.82306 4281 ft 214 kts 67°
2026-05-05 17:06 27.96242 -16.80735 4183 ft 215 kts 67°
2026-05-05 17:06 27.96791 -16.79170 3939 ft 213 kts 67°
2026-05-05 17:06 27.97336 -16.77615 3666 ft 211 kts 67°
2026-05-05 17:07 27.97868 -16.76095 3392 ft 205 kts 67°
2026-05-05 17:07 27.98384 -16.74622 3123 ft 199 kts 67°
2026-05-05 17:07 27.98885 -16.73188 2864 ft 193 kts 67°
2026-05-05 17:07 27.99355 -16.71844 2639 ft 173 kts 67°
2026-05-05 17:08 27.99774 -16.70650 2415 ft 155 kts 68°
2026-05-05 17:08 28.00157 -16.69552 2206 ft 147 kts 68°
2026-05-05 17:08 28.00528 -16.68492 2017 ft 143 kts 69°
2026-05-05 17:08 28.00890 -16.67453 1823 ft 142 kts 69°
2026-05-05 17:09 28.01250 -16.66421 1640 ft 141 kts 70°
2026-05-05 17:09 28.01608 -16.65395 1451 ft 140 kts 70°
2026-05-05 17:09 28.01966 -16.64372 1266 ft 139 kts 71°
2026-05-05 17:09 28.02322 -16.63351 1077 ft 139 kts 72°
2026-05-05 17:10 28.02679 -16.62331 899 ft 139 kts 72°
2026-05-05 17:10 28.03032 -16.61313 693 ft 138 kts 72°
2026-05-05 17:10 28.03380 -16.60294 518 ft 138 kts 70°
2026-05-05 17:10 28.03735 -16.59288 316 ft 137 kts 70°
2026-05-05 17:11 28.04081 -16.58294 196 ft 129 kts 69°
2026-05-05 17:11 28.04355 -16.57513 189 ft 82 kts 68°
2026-05-05 17:11 28.04505 -16.57095 205 ft 37 kts 63°
2026-05-05 17:11 28.04642 -16.56888 198 ft 21 kts 46°
2026-05-05 17:12 28.04730 -16.56781 207 ft 15 kts 48°
2026-05-05 17:12 28.04791 -16.56803 214 ft 12 kts 281°
2026-05-05 17:12 28.04759 -16.56908 213 ft 12 kts 248°
2026-05-05 17:12 28.04733 -16.56983 215 ft 9 kts 248°
2026-05-05 17:13 28.04712 -16.57043 215 ft 10 kts 248°
2026-05-05 17:13 28.04686 -16.57110 215 ft 9 kts 241°
2026-05-05 17:13 28.04659 -16.57171 215 ft 10 kts 249°
2026-05-05 17:13 28.04629 -16.57256 215 ft 11 kts 249°
2026-05-05 17:14 28.04593 -16.57362 215 ft 15 kts 249°
2026-05-05 17:14 28.04561 -16.57453 215 ft 9 kts 249°
2026-05-05 17:14 28.04549 -16.57492 215 ft 3 kts 262°
2026-05-05 17:14 28.04559 -16.57506 215 ft 3 kts 315°
2026-05-05 17:15 28.04577 -16.57515 216 ft 3 kts 338°
2026-05-05 17:15 28.04589 -16.57521 216 ft 1 kts 338°
2026-05-05 17:15 28.04598 -16.57525 218 ft 1 kts 338°
2026-05-05 17:15 28.04603 -16.57527 216 ft 0 kts 338°